DW0915 Weather Reports


time (UTC)temp
F
wind
direction
speed
knots
gust
knots
rain 1hr
in
rain 24hr
in
rain mn
in
humidity
%
barometer
mb
20260507051537 57 0 0.0 0.0 0.00 0.00 0.00 47 1018.2
20260507050038 58 0 0.0 0.0 0.00 0.00 0.00 48 1018.2
20260507044551 58 0 0.0 0.0 0.00 0.00 0.00 50 1018.1
20260507043038 59 0 0.0 0.0 0.00 0.00 0.00 51 1018.1
20260507041537 59 0 0.0 0.0 0.00 0.00 0.00 52 1018.1
20260507040038 59 0 0.0 0.0 0.00 0.00 0.00 53 1018.0
20260507034545 60 0 0.0 0.0 0.00 0.00 0.00 55 1017.7
20260507033044 60 0 0.0 0.0 0.00 0.00 0.00 58 1017.6
20260507031539 61 0 0.0 0.0 0.00 0.00 0.00 61 1017.4
20260507030038 62 0 0.0 0.0 0.00 0.00 0.00 63 1017.1
20260507024549 62 0 0.0 0.0 0.00 0.00 0.00 64 1017.1
20260507023044 64 0 0.0 0.0 0.00 0.00 0.00 64 1016.9
20260507021543 65 0 0.0 0.0 0.00 0.00 0.00 63 1016.9
20260507020048 65 0 0.0 0.0 0.00 0.00 0.00 61 1016.8
20260507014538 66 0 0.0 0.0 0.00 0.00 0.00 59 1016.8
20260507013056 67 0 0.0 0.0 0.00 0.00 0.00 58 1016.7
20260507011545 67 0 0.0 0.9 0.00 0.00 0.00 57 1016.8
20260507010045 67 0 0.0 6.1 0.00 0.00 0.00 57 1016.9
20260507004540 68 0 0.0 4.3 0.00 0.00 0.00 56 1016.8
20260507003037 68 0 0.9 9.6 0.00 0.00 0.00 57 1016.9
20260507001541 69 0 0.0 2.6 0.00 0.00 0.00 56 1016.8
20260507000051 68 0 0.9 10.4 0.00 0.00 0.00 57 1016.8
20260506234543 69 0 0.0 7.0 0.00 0.00 0.00 56 1016.7
20260506233042 69 0 0.0 7.0 0.00 0.00 0.00 56 1016.6
20260506231544 70 0 0.0 9.6 0.00 0.00 0.00 56 1016.7
20260506230038 69 0 0.0 10.4 0.00 0.00 0.00 57 1016.7
20260506224544 70 0 0.9 7.8 0.00 0.00 0.00 56 1016.7
20260506223037 70 238 1.7 10.4 0.00 0.00 0.00 56 1017.1
20260506221543 70 0 2.6 13.0 0.00 0.00 0.00 54 1017.3
20260506220038 71 0 0.9 9.6 0.00 0.00 0.00 53 1017.7
20260506214536 69 0 0.0 11.3 0.00 0.00 0.00 55 1017.8
20260506213042 70 250 0.9 11.3 0.00 0.00 0.00 54 1017.8
20260506211538 70 223 0.0 11.3 0.00 0.00 0.00 53 1018.0
20260506210040 70 0 0.0 7.8 0.00 0.00 0.00 55 1018.0
20260506204538 70 0 0.9 10.4 0.00 0.00 0.00 55 1018.1
20260506203037 70 0 0.9 10.4 0.00 0.00 0.00 55 1018.3
20260506201544 70 0 0.9 12.2 0.00 0.00 0.00 54 1018.5
20260506200038 69 0 0.0 7.8 0.00 0.00 0.00 55 1018.4
20260506194550 69 0 2.6 12.2 0.00 0.00 0.00 55 1018.6
20260506193037 70 0 0.9 9.6 0.00 0.00 0.00 54 1018.5
20260506191542 70 0 0.0 6.1 0.00 0.00 0.00 51 1018.7
20260506190044 69 0 0.0 7.8 0.00 0.00 0.00 50 1018.8
20260506184542 68 254 0.0 7.0 0.00 0.00 0.00 53 1019.0
20260506183038 68 0 0.0 9.6 0.00 0.00 0.00 51 1019.0
20260506181545 67 0 0.0 9.6 0.00 0.00 0.00 53 1019.1
20260506180049 66 0 0.0 0.0 0.00 0.00 0.00 53 1019.2
20260506174542 66 0 0.0 0.0 0.00 0.00 0.00 53 1019.2
20260506173037 65 0 0.0 0.0 0.00 0.00 0.00 54 1019.2
20260506171551 64 0 0.0 0.0 0.00 0.00 0.00 55 1019.2
20260506170040 64 0 0.0 0.0 0.00 0.00 0.00 56 1019.1
20260506164543 63 0 0.0 0.0 0.00 0.00 0.00 57 1019.0
20260506163042 63 0 0.0 0.0 0.00 0.00 0.00 57 1019.0
20260506161543 62 0 0.0 0.0 0.00 0.00 0.00 58 1019.1
20260506160042 62 0 0.0 0.0 0.00 0.00 0.00 58 1019.0
20260506154601 61 0 0.0 0.0 0.00 0.00 0.00 57 1019.0
20260506153038 60 0 0.0 0.0 0.00 0.00 0.00 58 1019.0
20260506151538 59 0 0.0 0.0 0.00 0.00 0.00 58 1019.2
20260506150038 57 0 0.0 0.0 0.00 0.00 0.00 58 1019.1
20260506144555 55 0 0.0 0.0 0.00 0.00 0.00 55 1019.1
20260506143041 54 0 0.0 0.0 0.00 0.00 0.00 46 1019.1
20260506141540 51 0 0.0 0.0 0.00 0.00 0.00 34 1019.1
20260506140054 49 0 0.0 0.0 0.00 0.00 0.00 35 1018.9
20260506134538 48 0 0.0 0.0 0.00 0.00 0.00 35 1018.8
20260506133045 47 0 0.0 0.0 0.00 0.00 0.00 37 1018.9
20260506131538 47 0 0.0 0.0 0.00 0.00 0.00 36 1018.8
20260506130044 47 0 0.0 0.0 0.00 0.00 0.00 35 1018.7
20260506124542 47 0 0.0 0.0 0.00 0.00 0.00 36 1018.6
20260506123037 47 0 0.0 0.0 0.00 0.00 0.00 36 1018.4
20260506121538 47 0 0.0 0.0 0.00 0.00 0.00 36 1018.3
20260506120039 47 0 0.0 0.0 0.00 0.00 0.00 36 1018.3
20260506114537 48 0 0.0 0.0 0.00 0.00 0.00 36 1018.4
20260506113049 48 0 0.0 0.0 0.00 0.00 0.00 35 1018.3
20260506111542 49 0 0.0 0.0 0.00 0.00 0.00 34 1018.3
20260506110039 49 0 0.0 0.0 0.00 0.00 0.00 34 1018.2
20260506104545 49 0 0.0 0.0 0.00 0.00 0.00 33 1018.1
20260506103041 49 0 0.0 0.0 0.00 0.00 0.00 35 1018.2
20260506101546 48 0 0.0 0.0 0.00 0.00 0.00 36 1018.2
20260506100043 49 0 0.0 0.0 0.00 0.00 0.00 37 1018.3
20260506094541 49 0 0.0 0.0 0.00 0.00 0.00 36 1018.5
20260506093037 49 0 0.0 0.0 0.00 0.00 0.00 36 1018.5
20260506091537 49 0 0.0 0.0 0.00 0.00 0.00 38 1018.5
20260506090036 49 0 0.0 0.0 0.00 0.00 0.00 38 1018.7
20260506084541 50 0 0.0 0.0 0.00 0.00 0.00 40 1018.5
20260506083044 50 0 0.0 0.0 0.00 0.00 0.00 40 1018.7
20260506081540 51 0 0.0 0.0 0.00 0.00 0.00 40 1018.7
20260506073038 52 0 0.0 0.0 0.00 0.00 0.00 40 1018.7
20260506071544 52 0 0.0 0.0 0.00 0.00 0.00 40 1018.6
20260506061537 53 0 0.0 0.0 0.00 0.00 0.00 43 1017.8